Showing default

TDS 1, 40076

Orbit data source: Space-Track

TDS 1, 40076 is a payload satellite owned by UK TSB (UK) in SSO that was launched on Tue, 08 Jul 2014 UTC via a SOYUZ-2-1B launch vehicle from the Tyuratam Missile And Space Complex (TTMTR). Payload-class satellites include a variety of spacecraft equipped with specific instruments for various scientific and technological missions. These include communications satellites like Starlink; space stations such as the ISS; scientific satellites like the Hubble; Earth observation satellites from companies like Planet Labs, Umbra, and HawkEye 360; GPS; miniature CubeSats for education and research; and military/defense satellites.

Loading next visibility...
Identifier
40076, 2014-037H
Orbit
SSO
Country
Flag of UKUK
Related business
Manufacturer
SSTL (Astrium)
Mission
Partially operational Civil Technology
Bus & Motor
SSTL-150, AOCS
Mass
157 kg wet, 157 kg dry
Launch date (UTC)
2014-07-08 (12 years ago)
Launch vehicle
SOYUZ-2-1B
Launch site
Tyuratam Missile And Space Complex (TTMTR)
Object type
Payload
Rocket body
Debris
Shape & HBR
Box, 0.5 m
Radar Cross Section
1.500 m², Large (>1 m²)

Expand to show TLE details & history
Last TLE update: 9 hours ago

TLE from 9 hours ago
0 TDS 1
1 40076U 14037H   26177.94416407  .00008509  00000-0  48022-3 0  9991
2 40076  98.3811 171.1246 0005124 222.5193 137.5639 15.13430497649704
Epoch: 2026-06-26T22:39Z
TLE epoch observation values (Epoch: 2026-06-26T22:39:35.775Z)
Latitude
-0.00007°
Longitude
-83.83986°
Altitude
531.412 km
Speed
7.596 km/s
True Right ascension
11h 24m 29s
True Declination
0° 00' 00"
Sunlit
Object was in daylight at epoch
Visualization orbit readout
Latitude
Unknown
Longitude
Unknown
Altitude
Unknown
Speed
Unknown
Apparent Right ascension
Unknown
Apparent Declination
Unknown
Sunlit
N/A
Visualization observer readout
Local Sidereal Time
18:58:51
Azimuth
Unknown
Elevation
Unknown
Doppler factor
Unknown
Orbital elements
Apogee altitude
526.302 km
Perigee altitude
519.23 km
Semi-major axis
6,900.903 km
Eccentricity
0.00051
Inclination
98.3811°
RAAN
171.1246°
Arg. of periapsis
222.5193°
True anomaly
137.6035°
Mean anomaly
137.5639°
Eccentric anomaly
137.5837°
Mean motion
3.78603 °/min
Orbital period
95.09 mins
BSTAR
0.00048022
Loading maneuver chart data...
Computing Atmospheric mass density...
Loading historical data...
Loading historical data...
Loading historical data...
Loading historical data...
Loading historical data...
Loading historical data...
Loading historical data...

Documentation

Showing up to 5 results
|